Gladstone, Alberta

Past 24 Hour Conditions

Date / Time
(MDT)
Conditions Temp
(°C)
Humidity
(%)
Dew Point
(°C)
Wind
(km/h)
Pressure
(kPa)
Visibility
(km)
30 June 2015
4:00 N/A 15 92 14 7 N/A N/A
3:00 N/A 15 93 14 8 N/A N/A
2:00 N/A 16 84 13 8 N/A N/A
1:00 N/A 16 87 14 9 N/A N/A
00:00 N/A 16 92 15 8 N/A N/A
29 June 2015
23:00 N/A 16 92 15 6 N/A N/A
22:00 N/A 16 93 15 7 N/A N/A
21:00 N/A 16 91 15 6 N/A N/A
20:00 N/A 17 89 15 4 N/A N/A
19:00 N/A 17 86 15 7 N/A N/A
18:00 N/A 17 86 15 5 N/A N/A
17:00 N/A 18 82 15 9 N/A N/A
16:00 N/A 19 78 15 7 N/A N/A
15:00 N/A 20   79 16 10 N/A N/A
14:00 N/A 18 85 16 3 N/A N/A
13:00 N/A 18 86 15 5 N/A N/A
12:00 N/A 18 87 16 calm N/A N/A
11:00 N/A 18 80 14 4 N/A N/A
10:00 N/A 18 76 14 8 N/A N/A
9:00 N/A 18 73 13 7 N/A N/A
8:00 N/A 18 71 13 5 N/A N/A
7:00 N/A 15 85 13 2 N/A N/A
6:00 N/A 14 81 10 calm N/A N/A
5:00 N/A 12 82 9 calm N/A N/A
4:00 N/A 11   83 8 2 N/A N/A
N/A Not available
↑ Highest temperature
↓ Lowest temperature

If you require additional historical weather information, please visit Climate Data Online.

What we are doing

Date modified: